Location: Unspecified
(43.8044°N, 11.0278°E)
Time: 20:27:36
(UTC+02:00)

Okean 3 - Visible Passes

Search period start: 21 May 2018 00:00
Search period end: 31 May 2018 00:00
Orbit: 577 x 602 km, 82.5° (Epoch: 21 May)

Date Brightness Start Highest point End Pass type
(mag) Time Alt. Az. Time Alt. Az. Time Alt. Az.
21 May 3.6 21:32:16 10° S 21:36:34 85° W 21:40:53 10° N visible
22 May 4.2 21:40:27 10° SSW 21:44:41 56° W 21:48:54 10° N visible
23 May 5.1 21:48:49 10° SW 21:52:49 37° WNW 21:56:50 10° N visible
24 May 5.8 21:57:23 10° SW 22:01:00 26° WNW 22:04:37 10° NNW visible
25 May 6.3 22:06:13 10° WSW 22:09:14 18° WNW 22:12:14 10° NNW visible
26 May 6.6 22:15:32 10° W 22:17:30 13° WNW 22:19:28 10° NW visible
